Time,TemperatureF,DewpointF,PressureIn,WindDirection,WindDirectionDegrees,WindSpeedMPH,WindSpeedGustMPH,Humidity,HourlyPrecipIn,Conditions,Clouds,dailyrainin,SoftwareType,DateUTC
2013-04-08 00:02:00,56.0,43.0,29.86,North,0,0.0,0.0,62,66.78,,,-99.99,,2013-04-08 05:02:00,
2013-04-08 00:12:00,56.0,43.0,29.86,North,0,0.0,0.0,62,66.78,,,-99.99,,2013-04-08 05:12:00,
2013-04-08 00:22:00,56.0,43.0,29.86,North,0,0.0,0.0,62,66.78,,,-99.99,,2013-04-08 05:22:00,
2013-04-08 00:32:00,57.0,51.0,29.86,SSW,204,0.0,3.0,79,66.78,,,-99.99,,2013-04-08 05:32:00,
2013-04-08 00:42:00,57.0,51.0,29.85,SSW,194,0.0,2.0,79,66.78,,,-99.99,,2013-04-08 05:42:00,
2013-04-08 00:52:00,57.0,51.0,29.85,SSW,194,0.0,2.0,79,66.78,,,-99.99,,2013-04-08 05:52:00,
2013-04-08 01:02:00,59.0,52.0,29.86,South,177,0.0,2.0,77,66.78,,,-99.99,,2013-04-08 06:02:00,
2013-04-08 01:12:00,59.0,53.0,29.86,SW,235,1.0,5.0,80,66.78,,,-99.99,,2013-04-08 06:12:00,
2013-04-08 01:22:00,59.0,53.0,29.86,SW,235,1.0,5.0,80,66.78,,,-99.99,,2013-04-08 06:22:00,
2013-04-08 01:32:00,59.0,53.0,29.86,South,183,1.0,4.0,81,66.78,,,-99.99,,2013-04-08 06:32:00,
2013-04-08 01:42:00,59.0,53.0,29.86,South,183,1.0,4.0,81,66.78,,,-99.99,,2013-04-08 06:42:00,
2013-04-08 01:52:00,58.0,55.0,29.85,SSW,212,2.0,8.0,89,66.79,,,-99.99,,2013-04-08 06:52:00,
2013-04-08 02:02:00,57.0,55.0,29.85,South,191,1.0,2.0,93,66.79,,,-99.99,,2013-04-08 07:02:00,
2013-04-08 02:12:00,57.0,55.0,29.84,WSW,239,1.0,4.0,93,66.79,,,-99.99,,2013-04-08 07:12:00,
2013-04-08 02:22:00,57.0,55.0,29.84,WSW,239,1.0,4.0,93,66.79,,,-99.99,,2013-04-08 07:22:00,
2013-04-08 02:32:00,57.0,55.0,29.84,WSW,239,1.0,4.0,93,66.79,,,-99.99,,2013-04-08 07:32:00,
2013-04-08 02:42:00,57.0,55.0,29.84,WSW,239,1.0,4.0,93,66.79,,,-99.99,,2013-04-08 07:42:00,
2013-04-08 02:52:00,57.0,56.0,29.82,SW,236,1.0,4.0,96,66.81,,,-99.99,,2013-04-08 07:52:00,
2013-04-08 03:02:00,57.0,56.0,29.80,North,0,0.0,0.0,97,66.81,,,-99.99,,2013-04-08 08:02:00,
2013-04-08 03:12:00,57.0,56.0,29.80,North,0,0.0,0.0,97,66.81,,,-99.99,,2013-04-08 08:12:00,
2013-04-08 03:22:00,57.0,56.0,29.80,North,0,0.0,0.0,97,66.81,,,-99.99,,2013-04-08 08:22:00,
2013-04-08 03:32:00,57.0,56.0,29.80,North,0,0.0,0.0,97,66.81,,,-99.99,,2013-04-08 08:32:00,
2013-04-08 03:42:00,57.0,56.0,29.78,South,181,0.0,3.0,98,66.81,,,-99.99,,2013-04-08 08:42:00,
2013-04-08 03:52:00,57.0,56.0,29.78,South,181,0.0,3.0,98,66.81,,,-99.99,,2013-04-08 08:52:00,
2013-04-08 04:02:00,57.0,56.0,29.78,SSW,197,1.0,4.0,98,66.81,,,-99.99,,2013-04-08 09:02:00,
2013-04-08 04:12:00,57.0,56.0,29.77,SSW,208,1.0,4.0,97,66.81,,,-99.99,,2013-04-08 09:12:00,
2013-04-08 04:22:00,57.0,56.0,29.77,SSW,208,1.0,4.0,97,66.81,,,-99.99,,2013-04-08 09:22:00,
2013-04-08 04:33:00,57.0,56.0,29.76,SSW,207,2.0,9.0,96,66.81,,,-99.99,,2013-04-08 09:33:00,
2013-04-08 04:42:00,58.0,57.0,29.76,West,280,2.0,6.0,95,66.81,,,-99.99,,2013-04-08 09:42:00,
2013-04-08 04:53:00,58.0,57.0,29.76,West,280,2.0,6.0,95,66.81,,,-99.99,,2013-04-08 09:53:00,
2013-04-08 05:03:00,58.0,56.0,29.76,SSW,204,2.0,7.0,94,66.81,,,-99.99,,2013-04-08 10:03:00,
2013-04-08 05:13:00,58.0,56.0,29.76,SSW,204,2.0,7.0,94,66.81,,,-99.99,,2013-04-08 10:13:00,
2013-04-08 05:23:00,58.0,56.0,29.76,WSW,240,3.0,6.0,93,66.81,,,-99.99,,2013-04-08 10:23:00,
2013-04-08 05:33:00,58.0,56.0,29.76,SW,214,3.0,6.0,94,66.81,,,-99.99,,2013-04-08 10:33:00,
2013-04-08 05:43:00,58.0,56.0,29.76,SW,214,3.0,6.0,94,66.81,,,-99.99,,2013-04-08 10:43:00,
2013-04-08 05:53:00,57.0,56.0,29.76,North,0,2.0,5.0,95,66.81,,,-99.99,,2013-04-08 10:53:00,
2013-04-08 06:02:00,57.0,56.0,29.76,SW,236,4.0,9.0,95,66.81,,,-99.99,,2013-04-08 11:02:00,
2013-04-08 06:12:00,57.0,56.0,29.76,SW,236,4.0,9.0,95,66.81,,,-99.99,,2013-04-08 11:12:00,
2013-04-08 06:22:00,57.0,56.0,29.76,SW,236,4.0,9.0,95,66.81,,,-99.99,,2013-04-08 11:22:00,
2013-04-08 06:32:00,57.0,56.0,29.75,SW,231,4.0,9.0,95,66.81,,,-99.99,,2013-04-08 11:32:00,
2013-04-08 06:42:00,57.0,56.0,29.75,SW,231,4.0,9.0,95,66.81,,,-99.99,,2013-04-08 11:42:00,
2013-04-08 06:52:00,57.0,56.0,29.74,SW,225,4.0,9.0,95,66.81,,,-99.99,,2013-04-08 11:52:00,
2013-04-08 07:03:00,57.0,56.0,29.74,SSW,198,3.0,10.0,95,66.81,,,-99.99,,2013-04-08 12:03:00,
2013-04-08 07:12:00,57.0,56.0,29.74,SSW,198,3.0,10.0,95,66.81,,,-99.99,,2013-04-08 12:12:00,
2013-04-08 07:22:00,57.0,55.0,29.73,South,188,4.0,10.0,94,66.81,,,-99.99,,2013-04-08 12:22:00,
2013-04-08 07:32:00,57.0,55.0,29.72,WSW,246,4.0,10.0,92,66.81,,,-99.99,,2013-04-08 12:32:00,
2013-04-08 07:42:00,57.0,55.0,29.72,WSW,246,4.0,10.0,92,66.81,,,-99.99,,2013-04-08 12:42:00,
2013-04-08 07:52:00,58.0,55.0,29.71,SSE,149,4.0,12.0,90,66.81,,,-99.99,,2013-04-08 12:52:00,
2013-04-08 08:02:00,58.0,54.0,29.72,SW,226,4.0,8.0,87,66.81,,,-99.99,,2013-04-08 13:02:00,
2013-04-08 08:12:00,58.0,54.0,29.72,SW,226,4.0,8.0,87,66.81,,,-99.99,,2013-04-08 13:12:00,
2013-04-08 08:22:00,59.0,54.0,29.72,WNW,290,4.0,10.0,84,66.81,,,-99.99,,2013-04-08 13:22:00,
2013-04-08 08:32:00,59.0,54.0,29.72,WNW,284,5.0,12.0,82,66.81,,,-99.99,,2013-04-08 13:32:00,
2013-04-08 08:42:00,59.0,54.0,29.72,WNW,284,5.0,12.0,82,66.81,,,-99.99,,2013-04-08 13:42:00,
2013-04-08 08:52:00,60.0,54.0,29.72,SW,219,4.0,8.0,81,66.81,,,-99.99,,2013-04-08 13:52:00,
2013-04-08 09:02:00,61.0,54.0,29.72,WNW,287,4.0,11.0,79,66.81,,,-99.99,,2013-04-08 14:02:00,
2013-04-08 09:12:00,62.0,55.0,29.72,West,269,4.0,10.0,78,66.81,,,-99.99,,2013-04-08 14:12:00,
2013-04-08 09:22:00,62.0,55.0,29.72,West,269,4.0,10.0,78,66.81,,,-99.99,,2013-04-08 14:22:00,
2013-04-08 09:32:00,63.0,55.0,29.72,West,262,5.0,16.0,75,66.81,,,-99.99,,2013-04-08 14:32:00,
2013-04-08 09:42:00,64.0,55.0,29.72,West,269,5.0,12.0,73,66.81,,,-99.99,,2013-04-08 14:42:00,
2013-04-08 09:52:00,64.0,55.0,29.72,West,269,5.0,12.0,73,66.81,,,-99.99,,2013-04-08 14:52:00,
2013-04-08 10:02:00,64.0,55.0,29.72,West,281,5.0,18.0,72,66.81,,,-99.99,,2013-04-08 15:02:00,
2013-04-08 10:12:00,65.0,56.0,29.73,WSW,255,4.0,12.0,73,66.81,,,-99.99,,2013-04-08 15:12:00,
2013-04-08 10:22:00,65.0,56.0,29.73,WSW,255,4.0,12.0,73,66.81,,,-99.99,,2013-04-08 15:22:00,
2013-04-08 10:33:00,65.0,55.0,29.74,West,276,5.0,12.0,71,66.81,,,-99.99,,2013-04-08 15:33:00,
2013-04-08 10:43:00,65.0,55.0,29.74,West,276,5.0,12.0,71,66.81,,,-99.99,,2013-04-08 15:43:00,
2013-04-08 10:53:00,67.0,56.0,29.74,West,277,7.0,17.0,68,66.81,,,-99.99,,2013-04-08 15:53:00,
2013-04-08 11:03:00,67.0,56.0,29.75,WSW,248,6.0,12.0,68,66.81,,,-99.99,,2013-04-08 16:03:00,
2013-04-08 11:13:00,67.0,56.0,29.75,WSW,256,7.0,18.0,67,66.81,,,-99.99,,2013-04-08 16:13:00,
2013-04-08 11:22:00,67.0,56.0,29.75,WSW,256,7.0,18.0,67,66.81,,,-99.99,,2013-04-08 16:22:00,
2013-04-08 11:32:00,67.0,56.0,29.75,WSW,256,7.0,18.0,67,66.81,,,-99.99,,2013-04-08 16:32:00,
2013-04-08 11:42:00,68.0,57.0,29.75,WNW,302,9.0,22.0,67,66.81,,,-99.99,,2013-04-08 16:42:00,
2013-04-08 11:53:00,68.0,56.0,29.76,WNW,287,8.0,20.0,66,66.81,,,-99.99,,2013-04-08 16:53:00,
2013-04-08 12:03:00,68.0,57.0,29.76,WNW,288,8.0,17.0,67,66.81,,,-99.99,,2013-04-08 17:03:00,
2013-04-08 12:12:00,68.0,56.0,29.76,West,278,10.0,22.0,65,66.81,,,-99.99,,2013-04-08 17:12:00,
2013-04-08 12:22:00,68.0,56.0,29.76,West,278,10.0,22.0,65,66.81,,,-99.99,,2013-04-08 17:22:00,
2013-04-08 12:32:00,69.0,56.0,29.76,West,267,6.0,20.0,64,66.81,,,-99.99,,2013-04-08 17:32:00,
2013-04-08 12:43:00,69.0,56.0,29.76,West,267,6.0,20.0,64,66.81,,,-99.99,,2013-04-08 17:43:00,
2013-04-08 12:52:00,69.0,56.0,29.77,WNW,297,8.0,19.0,64,66.81,,,-99.99,,2013-04-08 17:52:00,
2013-04-08 13:02:00,70.0,57.0,29.77,WNW,290,8.0,17.0,63,66.81,,,-99.99,,2013-04-08 18:02:00,
2013-04-08 13:12:00,70.0,56.0,29.76,WNW,285,9.0,20.0,61,66.81,,,-99.99,,2013-04-08 18:12:00,
2013-04-08 13:22:00,70.0,56.0,29.76,WNW,285,9.0,20.0,61,66.81,,,-99.99,,2013-04-08 18:22:00,
2013-04-08 13:32:00,71.0,56.0,29.76,West,277,7.0,15.0,60,66.81,,,-99.99,,2013-04-08 18:32:00,
2013-04-08 13:42:00,72.0,55.0,29.76,West,274,9.0,24.0,56,66.81,,,-99.99,,2013-04-08 18:42:00,
2013-04-08 13:52:00,72.0,55.0,29.76,West,274,9.0,24.0,56,66.81,,,-99.99,,2013-04-08 18:52:00,
2013-04-08 14:02:00,72.0,56.0,29.76,WSW,255,7.0,15.0,57,66.81,,,-99.99,,2013-04-08 19:02:00,
2013-04-08 14:12:00,73.0,56.0,29.76,West,271,6.0,19.0,55,66.81,,,-99.99,,2013-04-08 19:12:00,
2013-04-08 14:22:00,73.0,56.0,29.76,West,271,6.0,19.0,55,66.81,,,-99.99,,2013-04-08 19:22:00,
2013-04-08 14:33:00,74.0,56.0,29.76,West,266,6.0,16.0,53,66.81,,,-99.99,,2013-04-08 19:33:00,
2013-04-08 14:42:00,74.0,57.0,29.75,West,281,4.0,12.0,55,66.81,,,-99.99,,2013-04-08 19:42:00,
2013-04-08 14:52:00,74.0,57.0,29.75,West,281,4.0,12.0,55,66.81,,,-99.99,,2013-04-08 19:52:00,
2013-04-08 15:02:00,73.0,56.0,29.75,NW,304,2.0,8.0,55,66.81,,,-99.99,,2013-04-08 20:02:00,
2013-04-08 15:12:00,72.0,55.0,29.76,West,266,3.0,10.0,56,66.81,,,-99.99,,2013-04-08 20:12:00,
2013-04-08 15:22:00,72.0,55.0,29.76,West,266,3.0,10.0,56,66.81,,,-99.99,,2013-04-08 20:22:00,
2013-04-08 15:33:00,72.0,56.0,29.76,West,278,2.0,7.0,57,66.81,,,-99.99,,2013-04-08 20:33:00,
2013-04-08 15:42:00,72.0,56.0,29.76,West,278,2.0,7.0,57,66.81,,,-99.99,,2013-04-08 20:42:00,
2013-04-08 15:52:00,74.0,57.0,29.75,West,262,1.0,6.0,55,66.81,,,-99.99,,2013-04-08 20:52:00,
2013-04-08 16:02:00,74.0,57.0,29.75,WNW,300,3.0,10.0,55,66.81,,,-99.99,,2013-04-08 21:02:00,
2013-04-08 16:12:00,74.0,58.0,29.75,NW,309,3.0,9.0,57,66.81,,,-99.99,,2013-04-08 21:12:00,
2013-04-08 16:22:00,74.0,58.0,29.75,NW,309,3.0,9.0,57,66.81,,,-99.99,,2013-04-08 21:22:00,
2013-04-08 16:32:00,73.0,58.0,29.76,West,259,3.0,11.0,59,66.81,,,-99.99,,2013-04-08 21:32:00,
2013-04-08 16:43:00,73.0,58.0,29.76,West,259,3.0,11.0,59,66.81,,,-99.99,,2013-04-08 21:43:00,
2013-04-08 16:53:00,74.0,58.0,29.76,WNW,283,3.0,10.0,58,66.81,,,-99.99,,2013-04-08 21:53:00,
2013-04-08 17:02:00,75.0,58.0,29.76,WNW,297,3.0,8.0,55,66.81,,,-99.99,,2013-04-08 22:02:00,
2013-04-08 17:13:00,73.0,58.0,29.78,West,266,4.0,15.0,60,66.81,,,-99.99,,2013-04-08 22:13:00,
2013-04-08 17:22:00,73.0,58.0,29.78,West,266,4.0,15.0,60,66.81,,,-99.99,,2013-04-08 22:22:00,
2013-04-08 17:32:00,73.0,58.0,29.78,West,266,4.0,15.0,60,66.81,,,-99.99,,2013-04-08 22:32:00,
2013-04-08 17:42:00,72.0,59.0,29.78,West,278,3.0,9.0,63,66.81,,,-99.99,,2013-04-08 22:42:00,
2013-04-08 17:53:00,73.0,59.0,29.79,West,277,3.0,11.0,61,66.81,,,-99.99,,2013-04-08 22:53:00,
2013-04-08 18:02:00,72.0,59.0,29.80,WSW,252,3.0,8.0,63,66.81,,,-99.99,,2013-04-08 23:02:00,
2013-04-08 18:12:00,72.0,59.0,29.80,WSW,252,3.0,8.0,63,66.81,,,-99.99,,2013-04-08 23:12:00,
2013-04-08 18:22:00,72.0,59.0,29.80,WSW,252,3.0,8.0,63,66.81,,,-99.99,,2013-04-08 23:22:00,
2013-04-08 18:32:00,71.0,58.0,29.80,SE,136,3.0,10.0,64,66.81,,,-99.99,,2013-04-08 23:32:00,
2013-04-08 18:42:00,71.0,59.0,29.81,South,176,3.0,10.0,65,66.81,,,-99.99,,2013-04-08 23:42:00,
2013-04-08 18:52:00,71.0,59.0,29.81,South,176,3.0,10.0,65,66.81,,,-99.99,,2013-04-08 23:52:00,
2013-04-08 19:02:00,70.0,59.0,29.82,WSW,242,1.0,9.0,67,66.81,,,-99.99,,2013-04-09 00:02:00,
2013-04-08 19:12:00,70.0,59.0,29.82,WSW,242,1.0,9.0,67,66.81,,,-99.99,,2013-04-09 00:12:00,
2013-04-08 19:22:00,69.0,58.0,29.83,West,274,1.0,2.0,68,66.81,,,-99.99,,2013-04-09 00:22:00,
2013-04-08 19:32:00,69.0,58.0,29.83,NW,318,0.0,2.0,69,66.81,,,-99.99,,2013-04-09 00:32:00,
2013-04-08 19:42:00,68.0,58.0,29.83,SSW,207,1.0,3.0,70,66.81,,,-99.99,,2013-04-09 00:42:00,
2013-04-08 19:52:00,68.0,58.0,29.83,SSW,207,1.0,3.0,70,66.81,,,-99.99,,2013-04-09 00:52:00,
2013-04-08 20:02:00,67.0,58.0,29.84,SW,232,1.0,3.0,72,66.81,,,-99.99,,2013-04-09 01:02:00,
2013-04-08 20:12:00,67.0,58.0,29.85,SW,215,1.0,3.0,73,66.81,,,-99.99,,2013-04-09 01:12:00,
2013-04-08 20:22:00,67.0,58.0,29.85,SW,215,1.0,3.0,73,66.81,,,-99.99,,2013-04-09 01:22:00,
2013-04-08 20:33:00,66.0,57.0,29.85,WSW,248,1.0,4.0,74,66.81,,,-99.99,,2013-04-09 01:33:00,
2013-04-08 20:42:00,66.0,58.0,29.85,SSW,212,1.0,4.0,75,66.81,,,-99.99,,2013-04-09 01:42:00,
2013-04-08 20:52:00,66.0,58.0,29.85,SSW,212,1.0,4.0,75,66.81,,,-99.99,,2013-04-09 01:52:00,
2013-04-08 21:02:00,66.0,58.0,29.85,SSW,203,1.0,5.0,76,66.81,,,-99.99,,2013-04-09 02:02:00,
2013-04-08 21:12:00,66.0,58.0,29.85,SSW,203,1.0,5.0,76,66.81,,,-99.99,,2013-04-09 02:12:00,
2013-04-08 21:22:00,66.0,58.0,29.86,WSW,238,0.0,4.0,76,66.81,,,-99.99,,2013-04-09 02:22:00,
2013-04-08 21:32:00,65.0,57.0,29.86,WSW,248,1.0,3.0,76,66.81,,,-99.99,,2013-04-09 02:32:00,
2013-04-08 21:42:00,65.0,58.0,29.86,SW,235,0.0,2.0,77,66.81,,,-99.99,,2013-04-09 02:42:00,
2013-04-08 21:52:00,65.0,58.0,29.86,SW,235,0.0,2.0,77,66.81,,,-99.99,,2013-04-09 02:52:00,
2013-04-08 22:02:00,65.0,58.0,29.86,SSE,158,1.0,3.0,77,66.81,,,-99.99,,2013-04-09 03:02:00,
2013-04-08 22:12:00,65.0,58.0,29.86,SSE,158,1.0,3.0,77,66.81,,,-99.99,,2013-04-09 03:12:00,
2013-04-08 22:21:00,63.0,57.0,29.88,SSE,152,0.0,2.0,80,66.81,,,-99.99,,2013-04-09 03:21:00,
2013-04-08 22:33:00,62.0,56.0,29.88,East,96,0.0,2.0,82,66.81,,,-99.99,,2013-04-09 03:33:00,
2013-04-08 22:43:00,62.0,56.0,29.88,East,96,0.0,2.0,82,66.81,,,-99.99,,2013-04-09 03:43:00,
2013-04-08 22:53:00,60.0,55.0,29.89,North,0,0.0,0.0,84,66.81,,,-99.99,,2013-04-09 03:53:00,
2013-04-08 23:03:00,59.0,55.0,29.89,SSW,205,0.0,2.0,88,66.81,,,-99.99,,2013-04-09 04:03:00,
2013-04-08 23:13:00,59.0,55.0,29.89,SSW,205,0.0,2.0,88,66.81,,,-99.99,,2013-04-09 04:13:00,
2013-04-08 23:23:00,59.0,55.0,29.89,North,0,0.0,0.0,88,66.81,,,-99.99,,2013-04-09 04:23:00,
2013-04-08 23:32:00,59.0,55.0,29.89,North,0,0.0,0.0,88,66.81,,,-99.99,,2013-04-09 04:32:00,
2013-04-08 23:42:00,59.0,55.0,29.89,North,0,0.0,0.0,88,66.81,,,-99.99,,2013-04-09 04:42:00,
2013-04-08 23:53:00,59.0,55.0,29.89,North,0,0.0,0.0,88,66.81,,,-99.99,,2013-04-09 04:53:00,